Date String (YYYY-MM-DD hh:mm:ss) UTC,Instrument flags,absolute air pressure of the measurement (hPa),sample flow rate (lpm),inlet stack bypass flow (lpm),air temperature of the measurement (°C),ambient temperature measured by the external sensor (°C),aerosol sample conditioner tube jacket temperature (°C),OPC LED temperature (°C),internal box temperature (°C),relative humidity of the measurement (%),span deviation,mass concentration of particles derived from Lorenz-Mie calculation of OPC scattering (μg/m³),mass concentration of particles derived from Lorenz-Mie calculation of OPC scattering (μg/m³),mass concentration of particles derived from Lorenz-Mie calculation of OPC scattering (μg/m³)
DateTimeUTC,F1_M11,P_M11,Q1_M11,Q2_M11,T1_M11,T2_M11,T3_M11,T4_M11,T5_M11,U1_M11,ZSPAN_M11,X2_M11,X0_M11,X1_M11
2023-12-30 16:00:00,SystemResetWarning,0830.4,5.00,000.00,020.8,020.2,000.0,028.9,022.3,11.2,0000.0,0003.15,0005.92,0002.75
2023-12-30 16:01:00,SystemResetWarning,0830.4,4.99,000.00,020.8,020.2,000.0,028.9,022.3,10.8,0000.0,0003.15,0006.36,0002.73
2023-12-30 16:02:00,SystemResetWarning,0830.3,5.00,000.00,020.8,020.2,000.0,028.9,022.3,11.2,0000.0,0003.15,0006.37,0002.70
2023-12-30 16:03:00,SystemResetWarning,0830.3,5.00,000.00,020.8,020.2,000.0,029.0,022.3,11.2,0000.0,0003.15,0006.00,0002.65
2023-12-30 16:04:00,SystemResetWarning,0830.3,5.00,000.00,020.8,020.2,000.0,029.0,022.3,11.2,0000.0,0003.16,0005.73,0002.61
2023-12-30 16:05:00,SystemResetWarning,0830.4,5.00,000.00,020.8,020.2,000.0,029.0,022.4,10.6,0000.0,0003.13,0005.61,0002.60
2023-12-30 16:06:00,SystemResetWarning,0830.3,5.00,000.00,020.9,020.3,000.0,029.0,022.4,10.5,0000.0,0003.10,0005.47,0002.58
2023-12-30 16:07:00,SystemResetWarning,0830.4,5.00,000.00,020.9,020.3,000.0,029.0,022.4,10.9,0000.0,0003.10,0005.36,0002.57
2023-12-30 16:08:00,SystemResetWarning,0830.3,4.99,000.00,020.9,020.3,000.0,029.1,022.4,11.2,0000.0,0003.11,0005.47,0002.58
2023-12-30 16:09:00,SystemResetWarning,0830.4,5.00,000.00,020.9,020.3,000.0,029.1,022.4,10.8,0000.0,0003.12,0005.45,0002.59
2023-12-30 16:10:00,SystemResetWarning,0830.4,5.00,000.00,020.9,020.3,000.0,029.1,022.5,10.2,0000.0,0003.14,0005.18,0002.63
2023-12-30 16:11:00,SystemResetWarning,0830.4,5.00,000.00,020.9,020.4,000.0,029.1,022.5,10.0,0000.0,0003.19,0005.07,0002.71
2023-12-30 16:12:00,SystemResetWarning,0830.4,5.00,000.00,021.0,020.4,000.0,029.1,022.5,9.5,0000.0,0003.27,0004.77,0002.79
2023-12-30 16:13:00,SystemResetWarning,0830.4,5.00,000.00,021.0,020.4,000.0,029.1,022.5,9.4,0000.0,0003.34,0004.96,0002.88
2023-12-30 16:14:00,SystemResetWarning,0830.4,5.00,000.00,021.0,020.4,000.0,029.2,022.5,9.3,0000.0,0003.36,0004.92,0002.95
2023-12-30 16:15:00,SystemResetWarning,0830.4,5.00,000.00,021.0,020.4,000.0,029.2,022.6,9.7,0000.0,0003.38,0004.90,0003.01
2023-12-30 16:16:00,SystemResetWarning,0830.3,5.00,000.00,021.1,020.5,000.0,029.2,022.6,10.1,0000.0,0003.42,0005.03,0003.06
2023-12-30 16:17:00,SystemResetWarning,0830.3,5.01,000.00,021.1,020.5,000.0,029.2,022.6,9.8,0000.0,0003.48,0005.72,0003.11
2023-12-30 16:18:00,SystemResetWarning,0830.3,5.00,000.00,021.1,020.5,000.0,029.2,022.6,9.9,0000.0,0003.53,0006.25,0003.16
2023-12-30 16:19:00,SystemResetWarning,0830.3,5.00,000.00,021.1,020.5,000.0,029.2,022.6,9.4,0000.0,0003.54,0006.16,0003.18
2023-12-30 16:20:00,SystemResetWarning,0830.3,5.00,000.00,021.1,020.5,000.0,029.3,022.7,9.8,0000.0,0003.56,0006.07,0003.21
2023-12-30 16:21:00,SystemResetWarning,0830.3,5.00,000.00,021.2,020.6,000.0,029.3,022.7,9.9,0000.0,0003.57,0006.11,0003.22
2023-12-30 16:22:00,SystemResetWarning,0830.3,5.00,000.00,021.2,020.6,000.0,029.3,022.7,9.6,0000.0,0003.55,0006.09,0003.21
2023-12-30 16:23:00,SystemResetWarning,0830.3,5.00,000.00,021.2,020.6,000.0,029.3,022.7,9.4,0000.0,0003.48,0005.90,0003.19
2023-12-30 16:24:00,SystemResetWarning,0830.3,5.00,000.00,021.2,020.6,000.0,029.3,022.8,9.5,0000.0,0003.44,0005.75,0003.17
2023-12-30 16:25:00,SystemResetWarning,0830.3,5.00,000.00,021.2,020.6,000.0,029.4,022.8,9.5,0000.0,0003.45,0005.82,0003.17
2023-12-30 16:26:00,SystemResetWarning,0830.3,5.00,000.00,021.3,020.7,000.0,029.4,022.8,9.7,0000.0,0003.48,0006.01,0003.19
2023-12-30 16:27:00,SystemResetWarning,0830.3,5.00,000.00,021.3,020.7,000.0,029.4,022.8,9.9,0000.0,0003.49,0006.99,0003.21
2023-12-30 16:28:00,SystemResetWarning,0830.3,5.00,000.00,021.3,020.7,000.0,029.4,022.8,10.0,0000.0,0003.49,0006.73,0003.22
2023-12-30 16:29:00,SystemResetWarning,0830.3,4.99,000.00,021.3,020.7,000.0,029.4,022.9,10.2,0000.0,0003.48,0006.82,0003.22
2023-12-30 16:30:00,SystemResetWarning,0830.3,5.00,000.00,021.3,020.8,000.0,029.5,022.9,9.9,0000.0,0003.49,0006.90,0003.22
2023-12-30 16:31:00,SystemResetWarning,0830.4,5.00,000.00,021.4,020.8,000.0,029.5,022.9,9.5,0000.0,0003.51,0007.17,0003.22
2023-12-30 16:32:00,SystemResetWarning,0830.4,5.01,000.00,021.4,020.8,000.0,029.5,022.9,9.4,0000.0,0003.53,0007.33,0003.23
2023-12-30 16:33:00,SystemResetWarning,0830.4,5.00,000.00,021.4,020.8,000.0,029.5,022.9,9.6,0000.0,0003.54,0007.36,0003.23
2023-12-30 16:34:00,SystemResetWarning,0830.3,5.01,000.00,021.4,020.9,000.0,029.5,023.0,9.6,0000.0,0003.53,0007.41,0003.22
2023-12-30 16:35:00,SystemResetWarning,0830.3,5.00,000.00,021.4,020.9,000.0,029.6,023.0,9.6,0000.0,0003.52,0007.38,0003.22
2023-12-30 16:36:00,SystemResetWarning,0830.3,5.00,000.00,021.5,020.9,000.0,029.6,023.0,9.5,0000.0,0003.50,0007.37,0003.21
2023-12-30 16:37:00,SystemResetWarning,0830.3,5.00,000.00,021.5,020.9,000.0,029.6,023.0,9.5,0000.0,0003.45,0007.14,0003.19
2023-12-30 16:38:00,SystemResetWarning,0830.2,5.00,000.00,021.5,020.9,000.0,029.6,023.1,9.4,0000.0,0003.43,0006.17,0003.18
2023-12-30 16:39:00,SystemResetWarning,0830.3,5.00,000.00,021.5,021.0,000.0,029.6,023.1,9.4,0000.0,0003.42,0005.88,0003.16
2023-12-30 16:40:00,SystemResetWarning,0830.3,4.99,000.00,021.5,021.0,000.0,029.6,023.1,9.5,0000.0,0003.39,0005.12,0003.13
2023-12-30 16:41:00,SystemResetWarning,0830.3,5.00,000.00,021.6,021.0,000.0,029.7,023.1,9.6,0000.0,0003.35,0005.09,0003.10
2023-12-30 16:42:00,SystemResetWarning,0830.3,5.00,000.00,021.6,021.0,000.0,029.7,023.1,9.7,0000.0,0003.31,0004.97,0003.03
2023-12-30 16:43:00,SystemResetWarning,0830.3,5.00,000.00,021.6,021.1,000.0,029.7,023.1,9.5,0000.0,0003.24,0004.68,0002.96
2023-12-30 16:44:00,SystemResetWarning,0830.3,5.00,000.00,021.6,021.1,000.0,029.7,023.2,9.8,0000.0,0003.20,0004.52,0002.91
2023-12-30 16:45:00,SystemResetWarning,0830.3,5.00,000.00,021.6,021.1,000.0,029.7,023.2,10.2,0000.0,0003.18,0004.34,0002.88
2023-12-30 16:46:00,SystemResetWarning,0830.3,5.00,000.00,021.6,021.1,000.0,029.8,023.2,10.4,0000.0,0003.15,0004.31,0002.83
2023-12-30 16:47:00,SystemResetWarning,0830.3,5.01,000.00,021.7,021.1,000.0,029.8,023.2,10.7,0000.0,0003.12,0004.83,0002.76
2023-12-30 16:48:00,SystemResetWarning,0830.4,5.01,000.00,021.7,021.1,000.0,029.8,023.2,10.6,0000.0,0003.08,0005.25,0002.72
2023-12-30 16:49:00,SystemResetWarning,0830.4,5.00,000.00,021.7,021.2,000.0,029.8,023.2,10.4,0000.0,0003.00,0005.28,0002.65
2023-12-30 16:50:00,SystemResetWarning,0830.4,5.00,000.00,021.7,021.2,000.0,029.8,023.3,10.3,0000.0,0002.87,0005.16,0002.58
2023-12-30 16:51:00,SystemResetWarning,0830.4,5.01,000.00,021.7,021.2,000.0,029.9,023.3,10.6,0000.0,0002.85,0005.41,0002.56
2023-12-30 16:52:00,SystemResetWarning,0830.4,5.00,000.00,021.7,021.2,000.0,029.9,023.3,11.2,0000.0,0002.85,0005.48,0002.58
2023-12-30 16:53:00,SystemResetWarning,0830.4,5.00,000.00,021.8,021.2,000.0,029.9,023.3,11.5,0000.0,0002.83,0005.20,0002.62
2023-12-30 16:54:00,SystemResetWarning,0830.4,5.00,000.00,021.8,021.3,000.0,029.9,023.3,11.6,0000.0,0002.85,0005.19,0002.65
2023-12-30 16:55:00,SystemResetWarning,0830.3,5.00,000.00,021.8,021.3,000.0,029.9,023.3,11.5,0000.0,0002.90,0005.31,0002.67
2023-12-30 16:56:00,SystemResetWarning,0830.3,5.00,000.00,021.8,021.3,000.0,029.9,023.3,11.5,0000.0,0002.95,0005.51,0002.70
2023-12-30 16:57:00,SystemResetWarning,0830.3,5.00,000.00,021.8,021.3,000.0,030.0,023.3,11.4,0000.0,0003.01,0005.63,0002.74
2023-12-30 16:58:00,SystemResetWarning,0830.3,5.00,000.00,021.8,021.3,000.0,030.0,023.4,11.4,0000.0,0003.05,0005.21,0002.82
2023-12-30 16:59:00,SystemResetWarning,0830.4,5.01,000.00,021.9,021.3,000.0,030.0,023.4,11.0,0000.0,0003.09,0004.51,0002.86
